Buffalo, MN

2:43 AM CST on December 11, 2019 (GMT -0600)
Buffalo

Weather History for KCFE - October, 2019

Change the Weather History Date:

Tuesday, October 15, 2019

  Actual Average (WUND) Record (WUND)
Temperature  
Mean Temperature 44 °F -  
Max Temperature 51 °F - - (-1)
Min Temperature 38 °F - - (-1)
Degree Days  
Heating Degree Days 20    
Moisture  
Dew Point 37 °F    
Average Humidity 76    
Maximum Humidity 93    
Minimum Humidity 51    
Precipitation  
Precipitation 0.12 in - - ()
Sea Level Pressure  
Sea Level Pressure 29.89 in    
Wind  
Wind Speed - (North)    
Max Wind Speed -    
Max Gust Speed -    
Visibility 10 miles    
Events Rain , Thunderstorm    
Averages and records for this station are not official NWS values.
T = Trace of Precipitation, MM = Missing Value Source: NWS Daily Summary

Daily Weather History Graph

Daily Weather History Graph

Search for Another Location

Airport or City:

Astronomy

Oct. 15, 2019 Rise Set
Actual Time 7:30 AM CDT 6:30 PM CDT
Civil Twilight 7:01 AM CDT 7:00 PM CDT
Nautical Twilight 6:27 AM CDT 7:34 PM CDT
Astronomical Twilight 5:53 AM CDT 8:08 PM CDT
Moon 7:47 PM CDT (10/15) 9:04 AM CDT (10/15)
Length of Visible Light 11h 58m
Length of Day
10h 59m
Full, 97% of the Moon is Illuminated
Oct 15
Full
Oct 21
Last Quarter
Oct 27
New
Nov 4
First Quarter
Nov 12
Full

Hourly Weather History & Observations

Time (CDT) Temp. Dew Point Humidity Pressure Visibility Wind Dir Wind Speed Gust Speed Precip Events Conditions
12:15 AM 42.1 °F 34.9 °F 76% 29.88 in 10.0 mi North - - N/A   Overcast
12:35 AM 42.8 °F 35.4 °F 75% 29.86 in 10.0 mi North - - N/A   Overcast
12:55 AM 42.8 °F 35.6 °F 76% 29.85 in 10.0 mi North - - N/A   Overcast
1:15 AM 43.3 °F 35.6 °F 74% 29.84 in 10.0 mi North - - N/A   Overcast
1:16 AM 43.3 °F 35.6 °F 74% 29.84 in 10.0 mi North - - N/A   Overcast
1:35 AM 43.7 °F 35.6 °F 73% 29.83 in 10.0 mi North - - N/A   Overcast
1:55 AM 43.0 °F 36.9 °F 79% 29.84 in 7.0 mi North - - 0.02 in Rain , Thunderstorm Light Thunderstorms and Rain
2:15 AM 42.1 °F 37.6 °F 84% 29.84 in 7.0 mi North - - 0.03 in Rain , Thunderstorm Rain
2:35 AM 41.2 °F 38.1 °F 89% 29.80 in 7.0 mi North - - 0.09 in Rain Light Rain
2:55 AM 41.0 °F 37.8 °F 88% 29.79 in 10.0 mi North - - 0.09 in   Scattered Clouds
3:35 AM 39.7 °F 37.2 °F 91% 29.78 in 10.0 mi North - - N/A   Scattered Clouds
3:55 AM 39.7 °F 37.4 °F 91% 29.77 in 10.0 mi North - - N/A   Clear
3:56 AM 39.7 °F 37.4 °F 91% 29.77 in 10.0 mi North - - N/A   Clear
4:16 AM 39.2 °F 36.9 °F 91% 29.78 in 10.0 mi North - - N/A   Clear
4:35 AM 38.7 °F 36.5 °F 92% 29.78 in 10.0 mi North - - N/A   Clear
4:55 AM 38.5 °F 36.5 °F 93% 29.78 in 10.0 mi North - - N/A   Clear
5:15 AM 38.7 °F 36.7 °F 93% 29.78 in 10.0 mi North - - N/A   Scattered Clouds
5:35 AM 39.4 °F 37.6 °F 93% 29.78 in 10.0 mi North - - N/A   Mostly Cloudy
5:55 AM 41.0 °F 38.7 °F 91% 29.79 in 10.0 mi North - - N/A   Overcast
5:56 AM 41.0 °F 38.7 °F 91% 29.79 in 10.0 mi North - - N/A   Overcast
6:15 AM 41.0 °F 38.5 °F 91% 29.79 in 10.0 mi North - - N/A   Overcast
6:16 AM 41.0 °F 38.5 °F 91% 29.79 in 10.0 mi North - - N/A   Overcast
6:35 AM 41.0 °F 38.1 °F 89% 29.79 in 10.0 mi North - - N/A   Overcast
6:36 AM 41.0 °F 37.9 °F 89% 29.79 in 10.0 mi North - - N/A   Overcast
6:55 AM 41.0 °F 37.6 °F 88% 29.79 in 10.0 mi North - - N/A   Overcast
7:15 AM 40.6 °F 37.4 °F 88% 29.79 in 10.0 mi North - - N/A   Overcast
7:16 AM 40.6 °F 37.4 °F 88% 29.79 in 10.0 mi North - - N/A   Overcast
7:35 AM 41.0 °F 37.4 °F 87% 29.79 in 10.0 mi North - - N/A   Overcast
7:36 AM 41.0 °F 37.4 °F 87% 29.79 in 10.0 mi North - - N/A   Overcast
7:55 AM 41.0 °F 37.4 °F 87% 29.80 in 10.0 mi North - - N/A   Overcast
8:15 AM 41.2 °F 37.4 °F 86% 29.80 in 10.0 mi North - - N/A   Overcast
8:35 AM 41.0 °F 37.0 °F 86% 29.81 in 10.0 mi North - - N/A Rain Light Rain
8:36 AM 41.0 °F 37.0 °F 86% 29.81 in 10.0 mi North - - N/A Rain Light Rain
8:55 AM 40.5 °F 36.1 °F 85% 29.81 in 10.0 mi North - - 0.01 in   Mostly Cloudy
9:15 AM 42.6 °F 37.4 °F 82% 29.81 in 10.0 mi North - - N/A   Mostly Cloudy
9:16 AM 42.8 °F 37.2 °F 81% 29.81 in 10.0 mi North - - N/A   Mostly Cloudy
9:35 AM 42.3 °F 36.5 °F 80% 29.82 in 10.0 mi North - - N/A   Overcast
9:55 AM 42.8 °F 36.0 °F 77% 29.82 in 10.0 mi North - - N/A   Overcast
9:56 AM 42.8 °F 36.0 °F 77% 29.82 in 10.0 mi North - - N/A   Overcast
10:15 AM 43.2 °F 36.1 °F 76% 29.82 in 10.0 mi North - - N/A   Scattered Clouds
10:35 AM 45.0 °F 36.5 °F 72% 29.84 in 10.0 mi North - - N/A   Scattered Clouds
10:36 AM 45.0 °F 36.5 °F 72% 29.84 in 10.0 mi North - - N/A   Scattered Clouds
10:55 AM 47.3 °F 36.0 °F 65% 29.84 in 10.0 mi North - - N/A   Clear
11:15 AM 48.7 °F 36.1 °F 62% 29.84 in 10.0 mi North - - N/A   Clear
11:35 AM 49.3 °F 35.6 °F 59% 29.84 in 10.0 mi North - - N/A   Scattered Clouds
11:55 AM 50.5 °F 35.8 °F 57% 29.85 in 10.0 mi North - - N/A   Scattered Clouds
12:15 PM 51.8 °F 36.5 °F 56% 29.85 in 10.0 mi North - - N/A   Clear
12:35 PM 51.8 °F 34.5 °F 52% 29.86 in 10.0 mi North - - N/A   Scattered Clouds
12:36 PM 51.8 °F 34.3 °F 51% 29.86 in 10.0 mi North - - N/A   Scattered Clouds
12:55 PM 51.8 °F 35.2 °F 53% 29.86 in 7.0 mi North - - N/A   Overcast
12:56 PM 51.6 °F 35.1 °F 53% 29.86 in 7.0 mi North - - N/A   Overcast
1:15 PM 50.0 °F 35.6 °F 58% 29.86 in 10.0 mi North - - N/A   Overcast
1:16 PM 50.0 °F 35.6 °F 58% 29.86 in 10.0 mi North - - N/A   Overcast
1:35 PM 49.6 °F 35.4 °F 58% 29.87 in 10.0 mi North - - N/A   Overcast
1:55 PM 49.6 °F 35.4 °F 58% 29.87 in 10.0 mi North - - N/A   Overcast
1:56 PM 49.6 °F 35.2 °F 58% 29.88 in 10.0 mi North - - N/A   Overcast
2:15 PM 49.8 °F 35.4 °F 58% 29.88 in 10.0 mi North - - N/A   Overcast
2:35 PM 49.1 °F 35.1 °F 58% 29.89 in 10.0 mi North - - N/A   Overcast
2:36 PM 49.1 °F 35.1 °F 58% 29.89 in 10.0 mi North - - N/A   Overcast
2:55 PM 48.2 °F 34.7 °F 60% 29.89 in 10.0 mi North - - N/A   Overcast
3:15 PM 48.2 °F 35.1 °F 60% 29.90 in 10.0 mi North - - N/A   Overcast
3:35 PM 48.4 °F 34.7 °F 59% 29.91 in 10.0 mi North - - N/A   Overcast
3:55 PM 48.2 °F 34.7 °F 60% 29.92 in 10.0 mi North - - N/A   Overcast
4:15 PM 47.7 °F 37.2 °F 67% 29.93 in 10.0 mi North - - N/A   Light Drizzle
4:35 PM 46.4 °F 38.7 °F 74% 29.94 in 10.0 mi North - - N/A   Overcast
4:55 PM 46.6 °F 39.7 °F 77% 29.95 in 10.0 mi North - - N/A Rain Light Rain
4:56 PM 46.4 °F 39.7 °F 78% 29.95 in 10.0 mi North - - N/A Rain Light Rain
5:15 PM 46.4 °F 39.6 °F 77% 29.95 in 10.0 mi North - - N/A Rain Rain
5:35 PM 44.6 °F 40.3 °F 85% 29.96 in 10.0 mi North - - N/A   Drizzle
5:36 PM 44.6 °F 40.3 °F 85% 29.96 in 10.0 mi North - - N/A   Drizzle
5:55 PM 44.6 °F 40.1 °F 84% 29.97 in 10.0 mi North - - N/A   Overcast
6:15 PM 44.6 °F 39.9 °F 84% 29.98 in 10.0 mi North - - N/A   Overcast
6:35 PM 44.6 °F 40.1 °F 84% 29.99 in 10.0 mi North - - N/A   Overcast
6:55 PM 44.6 °F 38.8 °F 80% 29.99 in 10.0 mi North - - N/A   Light Drizzle
7:15 PM 44.2 °F 36.5 °F 74% 30.00 in 10.0 mi North - - N/A   Overcast
7:35 PM 43.7 °F 36.5 °F 76% 30.01 in 10.0 mi North - - N/A   Overcast
7:55 PM 43.5 °F 35.6 °F 74% 30.01 in 10.0 mi North - - N/A   Overcast
8:15 PM 42.8 °F 35.2 °F 75% 30.02 in 10.0 mi North - - N/A   Mostly Cloudy
8:16 PM 42.8 °F 35.2 °F 75% 30.02 in 10.0 mi North - - N/A   Mostly Cloudy
8:35 PM 42.6 °F 35.4 °F 76% 30.03 in 10.0 mi North - - N/A   Scattered Clouds
8:55 PM 42.8 °F 35.8 °F 76% 30.04 in 10.0 mi North - - N/A   Mostly Cloudy
8:56 PM 42.8 °F 35.8 °F 76% 30.04 in 10.0 mi North - - N/A   Mostly Cloudy
9:15 PM 42.6 °F 35.6 °F 76% 30.04 in 10.0 mi North - - N/A   Overcast
9:35 PM 42.3 °F 35.1 °F 76% 30.05 in 10.0 mi North - - N/A   Overcast
9:36 PM 42.3 °F 35.1 °F 76% 30.05 in 10.0 mi North - - N/A   Overcast
9:55 PM 42.3 °F 34.9 °F 75% 30.06 in 10.0 mi North - - N/A   Overcast
9:56 PM 42.3 °F 35.1 °F 76% 30.06 in 10.0 mi North - - N/A   Overcast
10:15 PM 41.9 °F 34.5 °F 75% 30.06 in 10.0 mi North - - N/A   Overcast
10:35 PM 41.9 °F 34.3 °F 75% 30.07 in 10.0 mi North - - N/A   Overcast
10:55 PM 42.1 °F 34.3 °F 74% 30.08 in 10.0 mi North - - N/A   Overcast
11:15 PM 42.3 °F 34.7 °F 75% 30.07 in 10.0 mi North - - N/A   Overcast
11:16 PM 42.3 °F 34.7 °F 75% 30.07 in 10.0 mi North - - N/A   Overcast
11:35 PM 42.3 °F 34.9 °F 75% 30.07 in 10.0 mi North - - N/A   Overcast
11:55 PM 42.3 °F 34.9 °F 75% 30.07 in 10.0 mi North - - N/A   Overcast
11:56 PM 42.3 °F 34.9 °F 75% 30.08 in 10.0 mi North - - N/A   Overcast